Wind_Speed
24 22 20 18 16 15 14 12 11 10 8 7 5 3 2 2 1 1 1 2 2 2 3 3 4 4 6 8 8 7 5 6
26 24 22 21 20 18 16 15 13 11 9 7 5 4 3 3 2 2 2 3 4 4 4 5 6 6 9 12 10 7 9 9
26 26 24 23 21 20 18 17 15 12 10 8 6 4 1 4 4 3 3 4 5 5 5 5 6 5 7 11 10 8 8 7
22 26 26 24 22 22 21 19 16 14 12 10 6 1 3 7 5 5 6 6 6 4 5 5 4 9 8 7 6 6 8 7
19 23 24 25 18 18 21 21 19 16 12 9 8 5 10 13 12 6 5 3 4 2 4 4 4 6 6 9 11 12 10 8
27 22 22 22 21 22 19 20 16 14 12 9 10 14 17 11 11 7 6 2 2 4 6 5 6 9 9 11 10 13 14 15
26 28 25 24 23 25 23 20 22 19 14 17 16 13 11 10 9 10 9 8 7 10 9 9 12 11 8 10 13 12 13 15
26 31 32 29 32 31 28 17 17 18 18 17 15 16 17 17 17 14 11 10 9 7 8 9 8 9 11 11 14 13 14 13
26 28 32 34 36 29 25 24 19 14 21 19 17 21 17 14 14 14 11 9 10 8 6 5 8 10 11 11 12 13 13 15
26 25 26 28 33 26 25 25 23 12 17 22 23 18 15 14 12 9 8 1 2 2 4 7 9 8 8 11 15 18 15 17
27 27 26 27 28 31 22 17 17 21 25 24 21 18 14 12 8 7 8 7 6 8 9 9 8 7 9 13 18 14 14 17
31 28 27 24 26 20 21 22 26 27 26 22 20 16 14 12 12 7 9 7 8 10 8 6 6 9 14 17 14 16 8 8
33 30 26 25 28 31 30 30 29 26 21 20 17 15 15 14 11 10 11 12 13 9 6 4 3 13 16 17 16 6 8 9
37 32 30 29 34 33 34 31 27 25 24 20 18 18 16 17 13 11 10 7 8 7 6 5 1 8 12 15 9 16 12 11
37 35 34 35 35 34 30 27 24 22 22 22 21 19 18 18 17 15 12 10 9 5 7 7 7 6 6 7 7 5 22 11
33 35 36 40 37 36 37 35 33 31 27 24 23 21 21 18 16 13 11 10 7 4 8 9 8 8 8 7 10 12 17 14
38 35 41 43 40 40 39 39 32 30 25 24 23 23 21 17 15 12 10 7 7 6 8 9 9 8 10 13 11 13 15 20
36 38 43 45 38 43 41 38 34 32 29 29 26 24 20 18 14 11 9 7 7 7 8 9 9 11 9 9 12 15 18 20
41 44 41 37 39 45 43 37 34 33 34 31 28 24 22 20 16 12 7 8 8 9 10 10 9 8 11 14 15 15 17 19
43 43 40 43 45 44 39 37 36 38 34 29 26 24 21 18 15 12 11 9 9 9 9 8 7 10 13 14 15 16 14 17
Wind_Direction
181 179 180 180 181 184 181 183 187 184 182 177 171 170 169 165 177 221 275 298 304 321 330 343 344 351 358 352 353 4 35 87
183 184 185 187 189 190 192 192 196 197 198 197 193 198 201 207 208 218 270 282 290 300 310 321 336 353 16 13 353 356 41 18
185 189 191 193 196 198 199 201 206 208 211 212 212 221 248 238 236 225 271 275 283 293 301 322 357 351 7 13 42 50 20 301
190 193 195 197 202 205 207 209 214 218 221 220 193 150 258 281 247 306 296 288 283 295 326 351 34 8 342 352 350 2 295 325
200 195 197 198 188 211 215 215 217 218 222 221 194 188 219 235 261 303 319 330 302 337 7 360 344 351 318 311 304 296 299 274
191 200 199 195 179 220 232 221 213 217 201 224 215 216 225 231 251 258 283 284 3 10 307 295 285 273 266 278 302 309 312 309
206 189 202 196 184 216 220 216 213 204 189 223 232 234 227 237 227 240 236 222 216 228 241 265 272 279 279 278 275 284 283 284
209 187 202 192 198 211 214 210 225 216 189 221 226 226 225 220 208 207 218 207 222 238 262 262 283 295 313 329 338 332 324 326
220 207 209 203 203 214 207 198 220 221 191 216 232 231 234 233 218 225 230 239 240 256 280 338 348 336 326 320 326 306 308 308
226 219 212 207 206 206 213 208 196 192 203 216 228 232 221 219 223 229 237 199 104 213 231 240 234 245 283 285 274 277 286 286
218 219 221 207 199 210 209 194 181 205 212 219 226 218 218 220 210 194 140 188 212 224 220 240 264 280 283 282 285 301 290 289
214 222 219 209 197 200 179 197 201 209 215 217 208 209 201 185 196 201 173 186 222 251 261 274 306 297 280 299 297 309 326 324
203 213 214 207 189 193 190 199 204 210 204 212 202 208 205 199 212 202 182 207 227 254 271 283 308 281 303 304 322 303 293 269
199 203 209 206 200 199 198 203 200 202 208 198 201 205 203 176 197 193 175 233 244 273 308 310 250 285 316 326 327 332 251 284
198 201 207 210 198 205 197 204 195 193 200 193 200 202 194 196 198 211 191 202 247 275 299 306 313 328 320 348 334 310 317 311
199 198 213 216 199 203 194 194 187 194 201 197 198 197 197 202 208 209 192 202 222 244 279 302 309 315 299 286 278 301 315 311
207 203 214 217 204 204 197 193 188 194 197 193 195 194 197 200 202 194 183 210 252 261 280 301 307 292 289 297 302 307 306 308
200 205 213 216 206 207 204 200 189 194 189 192 195 195 192 194 193 193 204 220 243 277 288 300 292 292 300 303 294 301 305 308
199 204 207 212 217 208 213 203 194 192 193 196 193 192 191 193 192 198 207 235 262 282 291 297 302 305 294 295 293 290 292 296
201 208 215 214 208 206 206 193 189 189 198 196 191 192 196 195 190 200 217 242 268 283 294 297 289 287 294 292 289 295 302 296
Height
1524 1528 1531 1535 1538 1541 1543 1546 1547 1549 1550 1551 1552 1554 1554 1555 1556 1556 1557 1557 1558 1558 1559 1559 1559 1559 1559 1559 1559 1559 1559 1560
1522 1526 1529 1534 1536 1539 1542 1544 1546 1548 1550 1552 1553 1554 1555 1555 1556 1556 1557 1557 1557 1558 1558 1558 1558 1558 1559 1559 1558 1558 1559 1560
1520 1524 1527 1531 1534 1538 1540 1542 1545 1547 1550 1552 1553 1554 1554 1555 1555 1556 1556 1557 1557 1557 1557 1557 1558 1557 1558 1558 1558 1558 1557 1559
1519 1521 1525 1529 1533 1535 1538 1540 1543 1546 1548 1550 1552 1553 1554 1553 1554 1556 1556 1556 1557 1557 1557 1557 1557 1557 1556 1557 1557 1556 1558 1559
1516 1519 1523 1526 1531 1533 1536 1538 1541 1543 1546 1549 1551 1553 1553 1554 1555 1555 1555 1555 1555 1556 1557 1557 1558 1556 1556 1556 1556 1557 1557 1557
1516 1518 1520 1524 1530 1530 1533 1536 1539 1541 1544 1547 1551 1551 1552 1553 1553 1554 1554 1555 1555 1555 1556 1556 1557 1557 1557 1557 1556 1555 1554 1554
1511 1516 1518 1522 1527 1528 1530 1533 1536 1539 1543 1546 1548 1549 1551 1552 1553 1553 1554 1554 1554 1555 1556 1555 1556 1555 1555 1554 1553 1552 1552 1551
1508 1513 1515 1519 1521 1524 1528 1531 1532 1536 1539 1543 1546 1547 1548 1549 1550 1551 1552 1551 1552 1553 1553 1553 1553 1553 1552 1552 1551 1550 1549 1548
1507 1509 1511 1515 1518 1522 1525 1528 1530 1533 1537 1541 1543 1544 1547 1548 1547 1549 1550 1550 1550 1551 1550 1551 1551 1551 1551 1551 1550 1549 1548 1547
1504 1507 1507 1510 1515 1518 1521 1525 1529 1532 1534 1535 1537 1540 1543 1544 1545 1546 1547 1547 1548 1550 1550 1550 1549 1549 1549 1548 1547 1545 1544 1543
1494 1501 1504 1507 1512 1514 1519 1523 1527 1530 1530 1532 1535 1537 1538 1540 1542 1544 1545 1547 1547 1547 1546 1547 1546 1546 1546 1545 1543 1541 1540 1539
1488 1492 1501 1504 1508 1512 1517 1521 1523 1524 1526 1528 1531 1533 1536 1538 1539 1542 1543 1545 1544 1544 1545 1544 1544 1544 1541 1541 1539 1538 1538 1538
1482 1487 1494 1501 1504 1507 1511 1514 1517 1520 1522 1525 1528 1531 1534 1536 1537 1539 1540 1541 1541 1542 1542 1542 1543 1541 1539 1537 1536 1535 1534 1532
1475 1481 1489 1494 1499 1502 1506 1510 1513 1516 1519 1522 1525 1528 1531 1533 1535 1536 1538 1538 1539 1539 1540 1539 1540 1539 1537 1535 1532 1530 1529 1530
1470 1475 1482 1487 1493 1498 1503 1507 1511 1514 1515 1518 1521 1524 1527 1529 1531 1532 1535 1535 1535 1537 1536 1537 1537 1537 1537 1536 1533 1531 1529 1527
1467 1470 1476 1481 1487 1492 1495 1497 1502 1507 1511 1515 1518 1520 1523 1526 1529 1531 1531 1532 1533 1534 1533 1534 1534 1534 1533 1533 1532 1531 1529 1524
1461 1465 1470 1475 1481 1485 1489 1494 1499 1503 1507 1510 1515 1517 1519 1523 1525 1527 1529 1529 1530 1530 1530 1531 1531 1530 1529 1529 1529 1528 1527 1525
1453 1459 1462 1469 1475 1479 1483 1487 1493 1497 1501 1505 1510 1514 1516 1519 1521 1524 1525 1526 1526 1526 1526 1526 1526 1526 1526 1526 1526 1525 1524 1522
1444 1451 1457 1464 1470 1472 1477 1482 1489 1492 1495 1501 1505 1510 1512 1514 1517 1520 1522 1522 1522 1522 1522 1522 1522 1522 1522 1522 1522 1521 1520 1518
1434 1442 1452 1459 1463 1466 1472 1478 1484 1487 1491 1496 1501 1505 1509 1511 1513 1515 1517 1518 1519 1519 1518 1518 1519 1518 1518 1518 1517 1517 1517 1515